Weather History for Karlovy Vary, Czech Republic

Change the Weather History Date:

Tuesday, February 11, 2014

  Actual Average (EDQM) Record (EDQM)
Temperature  
Mean Temperature 34 °F -  
Max Temperature 38 °F 35 °F 48 °F (2008)
Min Temperature 28 °F 27 °F 1 °F (2012)
Degree Days  
Heating Degree Days 32    
Moisture  
Dew Point 28 °F    
Average Humidity 72    
Maximum Humidity 93    
Minimum Humidity 50    
Precipitation  
Precipitation 0.00 in - - ()
Sea Level Pressure  
Sea Level Pressure 29.61 in    
Wind  
Wind Speed 7 mph ()    
Max Wind Speed 15 mph    
Max Gust Speed 30 mph    
Visibility 7.4 miles    
Events Rain , Snow    
Averages and records for this station are not official NWS values.
T = Trace of Precipitation, MM = Missing Value Source: Averaged Metar Reports

Daily Weather History Graph

Daily Weather History Graph

Search for Another Location

Airport:

Trip Planner

Search our weather history database for the weather conditions in past years. The results will help you decide how hot, cold, wet, or windy it might be!

Date:

Astronomy

Feb. 11, 2014 Rise Set
Actual Time 7:26 AM CET 5:19 PM CET
Civil Twilight 6:52 AM CET 5:53 PM CET
Nautical Twilight 6:14 AM CET 6:31 PM CET
Astronomical Twilight 5:37 AM CET 7:08 PM CET
Moon 2:15 PM CET (2/11) 5:01 AM CET (2/11)
Length of Visible Light 11h 00m
Length of Day
9h 52m
Waxing Gibbous, 89% of the Moon is Illuminated
Feb 11
Waxing Gibbous
Feb 15
Full
Feb 22
Last Quarter
Mar 1
New
Mar 8
First Quarter

Hourly Weather History & Observations

Time (CET) Temp. Windchill Dew Point Humidity Pressure Visibility Wind Dir Wind Speed Gust Speed Precip Events Conditions
12:00 AM 31 °F - 29 °F 90%  in 12 mi ENE 4.5 mph - -   Overcast
12:00 AM 32.0 °F 28.7 °F 28.4 °F 87% 29.44 in - ENE 3.5 mph - N/A   Clear
1:00 AM 33 °F - 29 °F 81%  in 12 mi South 4.5 mph - -   Overcast
1:00 AM 32.0 °F 28.7 °F 30.2 °F 93% 29.44 in - SSE 3.5 mph - N/A   Clear
2:00 AM 34 °F - 29 °F 76%  in 12 mi South 2.2 mph - -   Overcast
2:00 AM 33.8 °F - 30.2 °F 87% 29.44 in - South 2.3 mph - N/A   Clear
3:00 AM 34 °F - 29 °F 75%  in 12 mi West 4.5 mph - -   Overcast
3:00 AM 33.8 °F 29.6 °F 28.4 °F 81% 29.47 in 6.2 mi West 4.6 mph - N/A   Scattered Clouds
3:07 AM 33.8 °F 30.8 °F 30.2 °F 87% 29.47 in 6.2 mi West 3.5 mph - N/A Snow Light Snow
4:00 AM 36 °F - 30 °F 73%  in 12 mi WSW 6.7 mph - - Snow Light Snow
4:00 AM 35.6 °F 30.7 °F 30.2 °F 81% 29.47 in 6.2 mi WSW 5.8 mph - N/A   Mostly Cloudy
5:00 AM 35 °F - 32 °F 83%  in 9 mi WSW 11.2 mph - -   Overcast
5:00 AM 35.6 °F 28.0 °F 32.0 °F 87% 29.50 in 6.2 mi WSW 10.4 mph - N/A   Mostly Cloudy
6:00 AM 35 °F - 32 °F 84%  in 9 mi WSW 11.2 mph - -   Overcast
6:00 AM 35.6 °F 28.6 °F 32.0 °F 87% 29.53 in 6.2 mi WSW 9.2 mph - N/A   Mostly Cloudy
6:30 AM 35.6 °F 27.5 °F 32.0 °F 87% 29.53 in 6.2 mi West 11.5 mph - N/A   Light Drizzle
7:00 AM 35 °F - 32 °F 85%  in 9 mi West 13.4 mph - - Rain Light Drizzle
7:00 AM 35.6 °F 27.5 °F 32.0 °F 87% 29.56 in 6.2 mi West 11.5 mph 25.3 mph N/A   Light Drizzle
7:30 AM 35.6 °F 26.2 °F 30.2 °F 81% 29.59 in 6.2 mi West 15.0 mph 29.9 mph N/A   Mostly Cloudy
7:42 AM 35.6 °F 27.1 °F 30.2 °F 81% 29.59 in 6.2 mi West 12.7 mph - N/A   Mostly Cloudy
8:00 AM 35 °F - 31 °F 78%  in 16 mi West 13.4 mph - - Rain Light Drizzle
8:00 AM 35.6 °F 26.6 °F 30.2 °F 81% 29.59 in 6.2 mi West 13.8 mph - N/A   Mostly Cloudy
8:30 AM 35.6 °F 28.0 °F 30.2 °F 81% 29.62 in 6.2 mi WSW 10.4 mph - N/A   Mostly Cloudy
9:00 AM 35 °F - 30 °F 76%  in 22 mi WSW 11.2 mph - -   Overcast
9:00 AM 35.6 °F 28.6 °F 30.2 °F 81% 29.62 in 6.2 mi WSW 9.2 mph - N/A   Mostly Cloudy
9:30 AM 35.6 °F 28.0 °F 30.2 °F 81% 29.62 in 6.2 mi WSW 10.4 mph - N/A   Mostly Cloudy
9:47 AM 35.6 °F 28.6 °F 30.2 °F 81% 29.65 in 6.2 mi WSW 9.2 mph - N/A   Light Drizzle
10:00 AM 35 °F - 30 °F 77%  in 19 mi West 11.2 mph - - Snow Snow Grains
10:00 AM 35.6 °F 28.6 °F 30.2 °F 81% 29.65 in 6.2 mi WSW 9.2 mph - N/A Snow Light Snow Grains
10:30 AM 35.6 °F 28.6 °F 30.2 °F 81% 29.65 in 6.2 mi WSW 9.2 mph - N/A   Mostly Cloudy
11:00 AM 36 °F - 28 °F 65%  in 31 mi West 13.4 mph - - Rain Light Drizzle
11:00 AM 37.4 °F 30.3 °F 28.4 °F 70% 29.65 in 6.2 mi West 10.4 mph - N/A   Mostly Cloudy
11:14 AM 37.4 °F 30.3 °F 28.4 °F 70% 29.65 in 6.2 mi WSW 10.4 mph - N/A   Mostly Cloudy
11:30 AM 37.4 °F 29.8 °F 28.4 °F 70% 29.65 in 6.2 mi WSW 11.5 mph - N/A   Mostly Cloudy
12:00 PM 37 °F - 28 °F 59%  in 31 mi West 11.2 mph - -   Mostly Cloudy
12:00 PM 37.4 °F 30.3 °F 28.4 °F 70% 29.65 in 6.2 mi WSW 10.4 mph - N/A   Mostly Cloudy
12:30 PM 37.4 °F 31.4 °F 28.4 °F 70% 29.65 in 6.2 mi WSW 8.1 mph - N/A   Mostly Cloudy
12:49 PM 35.6 °F 27.1 °F 28.4 °F 75% 29.65 in 6.2 mi West 12.7 mph - N/A Snow Light Snow Grains
1:00 PM 36 °F - 29 °F 67%  in 31 mi West 13.4 mph - - Rain Light Rain
1:00 PM 35.6 °F 27.1 °F 30.2 °F 81% 29.65 in 6.2 mi West 12.7 mph - N/A Rain Light Rain
1:30 PM 37.4 °F 30.8 °F 28.4 °F 70% 29.65 in 6.2 mi WSW 9.2 mph - N/A   Mostly Cloudy
2:00 PM 38 °F - 27 °F 53%  in 31 mi WSW 11.2 mph - - Rain Light Rain
2:00 PM 37.4 °F 30.3 °F 26.6 °F 65% 29.65 in 6.2 mi WSW 10.4 mph - N/A   Mostly Cloudy
2:30 PM 37.4 °F 30.3 °F 26.6 °F 65% 29.65 in 6.2 mi WSW 10.4 mph - N/A   Mostly Cloudy
3:00 PM 38 °F - 27 °F 53%  in 31 mi West 11.2 mph - -   Mostly Cloudy
3:00 PM 37.4 °F 30.8 °F 26.6 °F 65% 29.65 in 6.2 mi WSW 9.2 mph - N/A   Mostly Cloudy
3:30 PM 37.4 °F 31.4 °F 28.4 °F 70% 29.65 in 6.2 mi SW 8.1 mph - N/A   Mostly Cloudy
4:00 PM 37 °F - 27 °F 56%  in 31 mi SW 11.2 mph - -   Partly Cloudy
4:00 PM 37.4 °F 31.4 °F 26.6 °F 65% 29.65 in 6.2 mi SW 8.1 mph - N/A   Mostly Cloudy
4:30 PM 37.4 °F 30.3 °F 24.8 °F 60% 29.65 in 6.2 mi SW 10.4 mph - N/A   Mostly Cloudy
5:00 PM 37 °F - 26 °F 53%  in 31 mi WSW 11.2 mph - -   Mostly Cloudy
5:00 PM 37.4 °F 30.8 °F 26.6 °F 65% 29.65 in 6.2 mi WSW 9.2 mph - N/A   Mostly Cloudy
5:30 PM 37.4 °F 32.8 °F 24.8 °F 60% 29.65 in 6.2 mi WSW 5.8 mph - N/A   Mostly Cloudy
6:00 PM 36 °F - 25 °F 52%  in 31 mi WSW 8.9 mph - -   Mostly Cloudy
6:00 PM 35.6 °F 30.7 °F 24.8 °F 65% 29.68 in 6.2 mi SW 5.8 mph - N/A   Mostly Cloudy
6:30 PM 35.6 °F 29.2 °F 24.8 °F 65% 29.68 in 6.2 mi WSW 8.1 mph - N/A   Mostly Cloudy
7:00 PM 36 °F - 24 °F 50%  in 31 mi WSW 8.9 mph - -   Partly Cloudy
7:00 PM 35.6 °F 29.9 °F 24.8 °F 65% 29.68 in 6.2 mi WSW 6.9 mph - N/A   Mostly Cloudy
7:30 PM 35.6 °F 31.7 °F 24.8 °F 65% 29.71 in 6.2 mi SW 4.6 mph - N/A   Mostly Cloudy
8:00 PM 36 °F - 24 °F 51%  in 31 mi SSW 6.7 mph - -   Mostly Cloudy
8:00 PM 35.6 °F 31.7 °F 24.8 °F 65% 29.68 in 6.2 mi SSW 4.6 mph - N/A   Mostly Cloudy
9:00 PM 34 °F - 24 °F 56%  in 31 mi South 4.5 mph - -   Partly Cloudy
9:00 PM 33.8 °F 30.8 °F 24.8 °F 70% 29.68 in 6.2 mi South 3.5 mph - N/A   Scattered Clouds
10:00 PM 32 °F - 24 °F 61%  in 31 mi SSW 6.7 mph - -  
10:00 PM 32.0 °F - 24.8 °F 75% 29.68 in - Variable 2.3 mph - N/A   Clear
11:00 PM 29 °F - 23 °F 69%  in 31 mi SSW 4.5 mph - -  
11:00 PM 28.4 °F - 23.0 °F 80% 29.71 in - Variable 1.2 mph - N/A   Clear